EW9887 Weather Reports


time (UTC)temp
C
wind
direction
speed
KPH
gust
KPH
rain 1hr
cm
rain 24hr
cm
rain mn
cm
humidity
%
barometer
mb
20260507085021 10 0.0 0.0 0.00 0.00 0.00 51 1022.4
20260507084042 10 0.0 0.0 0.00 0.00 0.00 50 1022.3
20260507083020 10 0.0 0.0 0.00 0.00 0.00 50 1022.4
20260507082041 10 0.0 0.0 0.00 0.00 0.00 50 1022.4
20260507081021 10 0.0 0.0 0.00 0.00 0.00 50 1022.3
20260507080041 10 0.0 0.0 0.00 0.00 0.00 51 1022.3
20260507075022 10 0.0 0.0 0.00 0.00 0.00 51 1022.4
20260507074021 10 0.0 0.0 0.00 0.00 0.00 51 1022.2
20260507073021 10 0.0 0.0 0.00 0.00 0.00 51 1022.1
20260507072021 10 0.0 0.0 0.00 0.00 0.00 51 1022.3
20260507071020 10 0.0 0.0 0.00 0.00 0.00 51 1022.3
20260507070021 10 0.0 0.0 0.00 0.00 0.00 52 1022.4
20260507065103 10 0.0 0.0 0.00 0.00 0.00 53 1022.3
20260507064022 10 0.0 0.0 0.00 0.00 0.00 53 1022.1
20260507063023 10 0.0 0.0 0.00 0.00 0.00 52 1022.2
20260507062043 10 0.0 0.0 0.00 0.00 0.00 52 1022.1
20260507061022 10 0.0 0.0 0.00 0.00 0.00 54 1021.7
20260507060021 10 0.0 0.0 0.00 0.00 0.00 55 1021.7
20260507055042 10 0.0 0.0 0.00 0.00 0.00 56 1021.8
20260507054021 10 0.0 0.0 0.00 0.00 0.00 56 1021.8
20260507053022 10 0.0 0.0 0.00 0.00 0.00 57 1021.3
20260507052021 10 0.0 0.0 0.00 0.00 0.00 58 1021.5
20260507051021 10 0.0 0.0 0.00 0.00 0.00 59 1021.5
20260507050021 10 0.0 0.0 0.00 0.00 0.00 59 1021.4
20260507045021 10 0.0 0.0 0.00 0.00 0.00 59 1021.6
20260507044021 10 0.0 0.0 0.00 0.00 0.00 63 1021.9
20260507043021 10 0.0 0.0 0.00 0.00 0.00 64 1021.8
20260507042021 10 0.0 0.0 0.00 0.00 0.00 58 1021.6
20260507041020 10 0.0 0.0 0.00 0.00 0.00 62 1021.5
20260507040041 10 0.0 0.0 0.00 0.00 0.00 62 1021.2
20260507035021 10 0.0 0.0 0.00 0.00 0.00 61 1020.7
20260507034041 10 0.0 0.0 0.00 0.00 0.00 64 1020.1
20260507033021 10 0.0 0.0 0.00 0.00 0.00 73 1019.7
20260507032021 10 0.0 0.0 0.00 0.00 0.00 77 1019.7
20260507031021 10 0.0 0.0 0.00 0.00 0.00 76 1019.2
20260507030021 10 0.0 0.0 0.00 0.00 0.00 75 1019.2
20260507025021 11 0.0 0.0 0.00 0.00 0.00 74 1019.2
20260507024021 11 0.0 0.0 0.00 0.00 0.00 72 1019.1
20260507023021 12 0.0 0.0 0.00 0.00 0.00 70 1019.1
20260507022042 12 0.0 0.0 0.00 0.00 0.00 69 1019.5
20260507021021 13 0.0 0.0 0.00 0.00 0.00 68 1019.6
20260507020021 13 0.0 0.0 0.00 0.00 0.00 66 1019.6
20260507015021 13 0.0 0.0 0.00 0.00 0.00 64 1019.6
20260507014021 15 0.0 0.0 0.00 0.00 0.00 61 1019.8
20260507013020 15 0.0 0.0 0.00 0.00 0.00 59 1019.9
20260507012020 16 261 0.0 1.6 0.00 0.00 0.00 58 1020.0
20260507011041 16 0.0 1.6 0.00 0.00 0.00 57 1020.0
20260507010021 16 261 0.0 1.6 0.00 0.00 0.00 56 1020.3
20260507005022 16 0.0 0.0 0.00 0.00 0.00 55 1020.1
20260507004022 16 262 0.0 4.8 0.00 0.00 0.00 55 1019.9
20260507003022 17 269 0.0 3.2 0.00 0.00 0.00 54 1020.2
20260507002022 17 282 0.0 3.2 0.00 0.00 0.00 53 1020.0
20260507001022 17 278 0.0 4.8 0.00 0.00 0.00 53 1019.8
20260507000023 17 274 1.6 6.4 0.00 0.00 0.00 53 1019.8
20260506235022 17 273 0.0 6.4 0.00 0.00 0.00 53 1019.8
20260506234022 17 263 0.0 8.0 0.00 0.00 0.00 53 1019.9
20260506233042 16 273 0.0 8.0 0.00 0.00 0.00 53 1019.5
20260506232023 16 286 1.6 6.4 0.00 0.00 0.00 54 1019.6
20260506231042 16 287 1.6 8.0 0.00 0.00 0.00 54 1019.5
20260506230023 16 279 1.6 6.4 0.00 0.00 0.00 54 1019.9
20260506225022 16 295 1.6 9.7 0.00 0.00 0.00 54 1019.9
20260506224022 17 218 0.0 6.4 0.00 0.00 0.00 53 1020.1
20260506223022 17 306 1.6 6.4 0.00 0.00 0.00 53 1020.2
20260506222022 17 283 0.0 8.0 0.00 0.00 0.00 54 1020.4
20260506221022 16 318 1.6 8.0 0.00 0.00 0.00 53 1020.6
20260506220022 16 289 1.6 9.7 0.00 0.00 0.00 53 1020.7
20260506215042 16 218 1.6 8.0 0.00 0.00 0.00 52 1020.4
20260506214043 16 316 1.6 6.4 0.00 0.00 0.00 53 1020.5
20260506213021 16 287 1.6 11.3 0.00 0.00 0.00 52 1020.6
20260506212022 16 288 1.6 6.4 0.00 0.00 0.00 52 1020.7
20260506211021 16 330 1.6 6.4 0.00 0.00 0.00 51 1020.8
20260506210022 16 315 1.6 9.7 0.00 0.00 0.00 50 1020.9
20260506205022 16 290 1.6 8.0 0.00 0.00 0.00 48 1020.9
20260506204023 16 272 1.6 9.7 0.00 0.00 0.00 50 1021.0
20260506203022 16 20 0.0 11.3 0.00 0.00 0.00 50 1021.2
20260506202022 16 262 1.6 8.0 0.00 0.00 0.00 49 1021.5
20260506201022 16 286 3.2 11.3 0.00 0.00 0.00 50 1021.7
20260506200042 16 281 1.6 11.3 0.00 0.00 0.00 51 1021.8
20260506195021 16 297 1.6 8.0 0.00 0.00 0.00 54 1021.7
20260506194022 16 294 1.6 6.4 0.00 0.00 0.00 52 1022.0
20260506193042 15 280 1.6 6.4 0.00 0.00 0.00 53 1021.9
20260506192021 15 287 1.6 9.7 0.00 0.00 0.00 53 1022.1
20260506191024 15 281 1.6 6.4 0.00 0.00 0.00 53 1022.1
20260506190022 15 301 0.0 4.8 0.00 0.00 0.00 52 1022.1
20260506185021 15 279 1.6 6.4 0.00 0.00 0.00 54 1022.2
20260506184022 15 340 0.0 1.6 0.00 0.00 0.00 56 1022.3
20260506183021 14 340 0.0 4.8 0.00 0.00 0.00 56 1021.9
20260506182022 14 295 1.6 6.4 0.00 0.00 0.00 51 1021.8
20260506181021 13 317 0.0 4.8 0.00 0.00 0.00 53 1021.8
20260506180022 13 290 1.6 4.8 0.00 0.00 0.00 52 1021.6
20260506175021 13 279 0.0 3.2 0.00 0.03 0.00 53 1021.3
20260506174021 13 278 1.6 8.0 0.00 0.03 0.00 51 1021.2
20260506173022 12 283 1.6 3.2 0.00 0.05 0.00 53 1021.1
20260506172021 12 283 0.0 6.4 0.00 0.05 0.00 53 1021.1
20260506171022 12 286 1.6 4.8 0.00 0.05 0.00 53 1020.7
20260506170021 12 292 1.6 8.0 0.00 0.08 0.00 53 1020.9
20260506165021 12 290 0.0 6.4 0.00 0.08 0.00 54 1021.1
20260506164021 13 344 0.0 4.8 0.00 0.10 0.00 53 1021.5
20260506163021 13 36 1.6 6.4 0.00 0.10 0.00 52 1021.5
20260506162041 13 17 1.6 6.4 0.00 0.10 0.00 52 1021.4
20260506161021 13 26 1.6 9.7 0.00 0.13 0.00 52 1021.2
20260506160021 12 43 1.6 8.0 0.00 0.13 0.00 52 1020.9
20260506155021 12 28 1.6 16.1 0.00 0.13 0.00 54 1020.9
20260506154021 11 23 0.0 9.7 0.00 0.13 0.00 57 1020.5
20260506153021 10 0.0 0.0 0.00 0.15 0.00 60 1020.1
20260506152021 9 0.0 0.0 0.00 0.15 0.00 64 1019.7
20260506151021 8 47 0.0 4.8 0.00 0.15 0.00 66 1019.3
20260506150021 7 105 0.0 3.2 0.00 0.15 0.00 70 1019.3
20260506145022 7 204 0.0 1.6 0.00 0.18 0.00 71 1018.9
20260506144021 6 204 0.0 1.6 0.00 0.18 0.00 72 1018.9
20260506143021 6 0.0 0.0 0.00 0.18 0.00 71 1018.8
20260506142021 6 0.0 0.0 0.00 0.20 0.00 71 1018.8
20260506141041 5 204 0.0 3.2 0.00 0.20 0.00 72 1018.2
20260506140040 5 204 0.0 1.6 0.00 0.20 0.00 71 1018.1
20260506135021 5 204 0.0 3.2 0.00 0.20 0.00 72 1017.9
20260506134020 5 0.0 3.2 0.00 0.20 0.00 72 1017.9
20260506133021 5 204 0.0 1.6 0.00 0.20 0.00 73 1017.8
20260506132021 4 0.0 3.2 0.00 0.20 0.00 74 1017.3
20260506131020 4 0.0 3.2 0.00 0.20 0.00 73 1017.6
20260506130021 4 0.0 0.0 0.00 0.20 0.00 73 1017.5
20260506125043 4 0.0 3.2 0.00 0.20 0.00 74 1017.2
20260506124043 3 0.0 1.6 0.00 0.20 0.00 75 1016.8
20260506123023 3 204 1.6 3.2 0.00 0.20 0.00 76 1016.8
20260506122022 3 0.0 0.0 0.00 0.20 0.00 76 1017.1
20260506121022 3 0.0 0.0 0.00 0.20 0.00 78 1016.7
20260506120022 3 204 1.6 3.2 0.00 0.20 0.00 79 1016.6
20260506115022 2 204 0.0 3.2 0.00 0.20 0.00 80 1016.5
20260506114042 2 204 1.6 3.2 0.00 0.20 0.00 82 1016.5
20260506113023 2 204 0.0 3.2 0.00 0.20 0.00 83 1016.5
20260506112042 2 204 0.0 3.2 0.00 0.20 0.00 85 1016.2
20260506111022 2 204 0.0 3.2 0.00 0.20 0.00 86 1015.9
20260506110023 2 0.0 3.2 0.00 0.20 0.00 88 1016.1
20260506105042 2 204 0.0 3.2 0.00 0.20 0.00 88 1016.4
20260506104042 2 0.0 0.0 0.00 0.20 0.00 89 1016.4
20260506103022 2 204 0.0 3.2 0.00 0.20 0.00 89 1016.0
20260506102022 2 0.0 1.6 0.00 0.20 0.00 89 1016.0
20260506101041 2 204 1.6 3.2 0.00 0.20 0.00 90 1016.0
20260506100021 2 204 1.6 4.8 0.00 0.20 0.00 90 1016.1
20260506095022 1 204 0.0 3.2 0.00 0.20 0.00 90 1015.7
20260506094023 1 204 0.0 3.2 0.00 0.20 0.00 90 1015.6
20260506093043 1 0.0 3.2 0.00 0.20 0.00 90 1015.6
20260506092022 1 204 0.0 1.6 0.00 0.20 0.00 90 1015.6
20260506091022 1 204 0.0 3.2 0.00 0.20 0.00 90 1015.8
20260506090042 1 204 0.0 1.6 0.00 0.20 0.00 90 1015.8